Date,TemperatureHighF,TemperatureAvgF,TemperatureLowF,DewpointHighF,DewpointAvgF,DewpointLowF,HumidityHigh,HumidityAvg,HumidityLow,PressureMaxIn,PressureMinIn,WindSpeedMaxMPH,WindSpeedAvgMPH,GustSpeedMaxMPH,PrecipitationSumIn
2013-2-1,68.4,50.3,34.1,40.8,34.1,28.3,87,60,23,30.37,30.24,2,0,4,0.00
2013-2-2,71.1,52.2,37.8,45.5,37.1,33.6,88,61,28,30.34,30.15,3,0,6,0.00
2013-2-3,69.9,52.0,35.9,52.9,40.5,33.4,94,69,30,30.20,30.06,4,1,7,0.00
2013-2-4,66.7,51.8,37.9,46.1,39.0,34.4,97,67,32,30.14,30.05,2,0,3,0.00
2013-2-5,76.2,57.2,38.2,54.0,45.7,36.6,95,69,41,30.11,30.00,3,0,6,0.00
2013-2-6,73.2,64.0,57.0,62.4,57.9,52.9,93,81,62,30.13,30.03,1,0,3,0.00
2013-2-7,80.2,68.5,59.6,66.2,62.7,58.2,97,83,58,30.08,29.84,5,1,10,0.08
2013-2-8,77.9,66.3,54.2,65.9,60.0,52.8,95,81,55,30.09,29.87,4,1,7,0.00
2013-2-9,72.8,60.1,51.5,56.9,52.8,49.9,97,79,53,30.22,30.08,3,1,11,0.00
2013-2-10,78.6,64.9,52.4,60.2,55.8,49.8,93,74,48,30.27,30.16,4,1,8,0.00
2013-2-11,82.8,69.9,59.2,64.6,61.2,57.1,95,76,50,30.20,30.06,4,1,6,0.00
2013-2-12,84.0,70.9,60.7,68.9,63.9,59.4,98,81,52,30.10,29.92,4,1,9,0.00
2013-2-13,80.1,69.5,61.9,70.5,66.8,60.7,97,92,70,29.97,29.83,6,2,9,0.25
2013-2-14,62.5,58.6,52.0,61.2,56.6,51.2,97,93,80,30.08,29.93,2,0,4,0.24
2013-2-15,68.9,55.7,47.6,52.7,48.6,45.3,97,79,46,30.10,29.96,2,0,5,0.00
2013-2-16,65.7,52.7,45.1,48.8,42.1,24.4,97,70,43,30.16,29.93,6,2,11,0.00
2013-2-17,52.9,41.7,29.5,28.8,21.4,11.9,81,48,20,30.36,30.16,3,1,7,0.00
2013-2-18,67.5,47.5,28.8,46.2,34.9,25.2,90,66,35,30.39,30.22,4,1,9,0.00
2013-2-19,78.5,61.8,45.2,57.4,52.0,42.8,95,73,45,30.24,30.05,5,1,9,0.00
2013-2-20,72.2,62.4,51.9,59.8,52.8,47.8,95,73,50,30.16,30.03,3,0,4,0.00
2013-2-21,82.8,64.5,49.0,64.0,56.4,47.3,96,77,50,30.12,29.99,2,0,5,0.00
2013-2-22,86.9,72.7,60.5,68.3,64.1,58.6,98,77,48,30.08,29.97,4,1,12,0.00
2013-2-23,85.6,73.3,64.1,69.2,66.3,62.8,98,80,53,30.00,29.87,5,1,13,0.00
2013-2-24,80.3,70.8,64.7,70.5,67.0,60.6,96,88,72,29.96,29.86,2,0,5,0.01
2013-2-25,86.6,72.3,63.6,71.3,65.3,61.6,97,81,49,29.93,29.76,5,1,9,0.00
2013-2-26,75.7,69.2,63.0,70.5,65.2,60.4,97,88,60,29.86,29.71,6,2,9,0.66
2013-2-27,72.2,62.3,52.6,60.7,52.5,47.1,92,72,43,29.98,29.86,4,1,7,0.00
2013-2-28,72.5,58.0,45.2,54.1,48.1,43.8,96,72,43,30.01,29.88,6,2,9,0.00